Fond du Lac, WI

2:25 AM CST on November 23, 2017 (GMT -0600)
Fond du Lac County

Weather History for KFLD - April, 2014

Change the Weather History Date:

Friday, April 4, 2014

  Actual Average Record
Temperature  
Mean Temperature 33 °F -  
Max Temperature 37 °F 47 °F 73 °F (1997)
Min Temperature 30 °F 30 °F 9 °F (1982)
Degree Days  
Heating Degree Days 32    
Moisture  
Dew Point 30 °F    
Average Humidity 86    
Maximum Humidity 96    
Minimum Humidity 70    
Precipitation  
Precipitation 0.21 in - - ()
Sea Level Pressure  
Sea Level Pressure 29.60 in    
Wind  
Wind Speed 12 mph (NNW)    
Max Wind Speed 29 mph    
Max Gust Speed 37 mph    
Visibility 4 miles    
Events Fog , Rain , Snow    
Averages and records for this station are not official NWS values.
T = Trace of Precipitation, MM = Missing Value Source: NWS Daily Summary

Daily Weather History Graph

Daily Weather History Graph

Search for Another Location

Airport or City:

Trip Planner

Search our weather history database for the weather conditions in past years. The results will help you decide how hot, cold, wet, or windy it might be!

Date:

Astronomy

Apr. 04, 2014 Rise Set
Actual Time 6:30 AM CDT 7:24 PM CDT
Civil Twilight 6:00 AM CDT 7:53 PM CDT
Nautical Twilight 5:26 AM CDT 8:28 PM CDT
Astronomical Twilight 4:49 AM CDT 9:05 PM CDT
Moon 9:40 AM CDT (4/4) No Moon Set
Length of Visible Light 13h 52m
Length of Day
12h 54m
Waxing Crescent, 25% of the Moon is Illuminated
Apr 4
Waxing Crescent
Apr 7
First Quarter
Apr 15
Full
Apr 22
Last Quarter
Apr 29
New

Hourly Weather History & Observations

Time (CDT) Temp. Windchill Dew Point Humidity Pressure Visibility Wind Dir Wind Speed Gust Speed Precip Events Conditions
12:44 AM 35.1 °F 26.9 °F 28.0 °F 76% 29.68 in 10.0 mi ESE 11.5 mph 20.7 mph N/A   Overcast
12:53 AM 35.1 °F 26.4 °F 28.9 °F 78% 29.69 in 10.0 mi ESE 12.7 mph - N/A   Overcast
1:53 AM 34.0 °F 26.6 °F 30.0 °F 85% 29.70 in 6.0 mi East 9.2 mph - 0.05 in Rain Rain
2:48 AM 33.8 °F 27.0 °F 30.2 °F 87% 29.64 in 3.0 mi ESE 8.1 mph - 0.10 in Rain Light Rain
2:53 AM 33.1 °F 26.1 °F 30.0 °F 89% 29.66 in 3.0 mi East 8.1 mph - 0.10 in Rain Light Rain
3:00 AM 33.1 °F 26.1 °F 30.0 °F 89% 29.62 in 5.0 mi ESE 8.1 mph - 0.01 in Rain Light Rain
3:53 AM 33.1 °F 24.4 °F 30.0 °F 89% 29.58 in 8.0 mi ESE 11.5 mph - 0.01 in   Overcast
4:31 AM 33.1 °F 25.5 °F 30.9 °F 92% 29.51 in 2.5 mi ESE 9.2 mph - N/A   Overcast
4:53 AM 33.1 °F 25.5 °F 30.9 °F 92% 29.51 in 2.5 mi East 9.2 mph - 0.00 in Rain Light Rain
5:12 AM 33.1 °F 26.9 °F 30.9 °F 92% 29.49 in 4.0 mi East 6.9 mph - 0.01 in Rain Light Rain
5:22 AM 34.0 °F 28.8 °F 30.9 °F 89% 29.49 in 6.0 mi ESE 5.8 mph - 0.01 in   Overcast
5:53 AM 34.0 °F 31.0 °F 32.0 °F 92% 29.51 in 5.0 mi East 3.5 mph - 0.01 in   Overcast
6:04 AM 34.0 °F 29.8 °F 32.0 °F 92% 29.48 in 3.0 mi East 4.6 mph - 0.01 in Rain Light Rain
6:11 AM 34.0 °F 29.8 °F 32.0 °F 92% 29.48 in 2.5 mi East 4.6 mph - 0.02 in Rain Light Rain
6:33 AM 34.0 °F 31.0 °F 32.0 °F 92% 29.48 in 3.0 mi ESE 3.5 mph - 0.02 in   Overcast
6:51 AM 33.8 °F 30.8 °F 32.0 °F 93% 29.48 in 1.8 mi NNE 3.5 mph - 0.02 in   Overcast
6:52 AM 34.0 °F 31.0 °F 32.0 °F 92% 29.50 in 1.8 mi NNE 3.5 mph - 0.02 in   Overcast
6:59 AM 34.0 °F 28.8 °F 32.0 °F 92% 29.47 in 1.5 mi North 5.8 mph - N/A   Overcast
7:19 AM 34.0 °F 28.0 °F 30.9 °F 89% 29.48 in 1.5 mi North 6.9 mph - N/A   Overcast
7:53 AM 33.1 °F 24.9 °F 30.9 °F 92% 29.49 in 0.8 mi NE 10.4 mph - 0.00 in   Overcast
8:21 AM 33.1 °F 24.9 °F 30.9 °F 92% 29.46 in 1.0 mi NNE 10.4 mph - N/A   Overcast
8:53 AM 33.1 °F 25.5 °F 32.0 °F 96% 29.47 in 0.8 mi North 9.2 mph - 0.00 in   Overcast
9:05 AM 33.1 °F 24.9 °F 30.9 °F 92% 29.44 in 1.0 mi North 10.4 mph - 0.00 in   Overcast
9:53 AM 34.0 °F 25.0 °F 32.0 °F 92% 29.47 in 1.5 mi North 12.7 mph - 0.00 in   Overcast
10:28 AM 34.0 °F 25.5 °F 32.0 °F 92% 29.45 in 1.8 mi NNE 11.5 mph - N/A   Overcast
10:39 AM 34.0 °F 25.5 °F 32.0 °F 92% 29.46 in 2.0 mi North 11.5 mph - N/A   Overcast
10:53 AM 34.0 °F 25.5 °F 30.9 °F 89% 29.49 in 2.5 mi NNW 11.5 mph - N/A   Overcast
11:14 AM 34.0 °F 25.5 °F 32.0 °F 92% 29.47 in 3.0 mi North 11.5 mph - N/A   Overcast
11:30 AM 34.0 °F 26.6 °F 30.9 °F 89% 29.47 in 2.5 mi NNW 9.2 mph - N/A   Overcast
11:53 AM 34.0 °F 25.5 °F 30.9 °F 89% 29.50 in 2.5 mi NNW 11.5 mph - 0.00 in Snow Light Snow
12:20 PM 34.0 °F 26.6 °F 32.0 °F 92% 29.48 in 3.0 mi NW 9.2 mph - 0.00 in Snow Light Snow
12:53 PM 34.0 °F 25.5 °F 32.0 °F 92% 29.51 in 5.0 mi WNW 11.5 mph - 0.00 in Snow Light Snow
1:22 PM 34.0 °F 23.8 °F 30.9 °F 89% 29.49 in 1.8 mi WNW 16.1 mph - 0.00 in Snow Light Snow
1:29 PM 35.1 °F 24.5 °F 30.9 °F 85% 29.49 in 1.5 mi WNW 18.4 mph 23.0 mph 0.00 in Snow Light Snow
1:40 PM 35.1 °F 25.2 °F 32.0 °F 89% 29.49 in 2.5 mi WNW 16.1 mph - 0.00 in Snow Light Snow
1:48 PM 35.6 °F 26.6 °F 33.8 °F 93% 29.50 in 6.0 mi WNW 13.8 mph 23.0 mph 0.00 in Snow Light Snow
1:53 PM 35.1 °F 24.5 °F 32.0 °F 89% 29.52 in 5.0 mi WNW 18.4 mph 24.2 mph 0.01 in Snow Light Snow
2:12 PM 36.0 °F 26.3 °F 32.0 °F 86% 29.51 in 10.0 mi NW 16.1 mph 26.5 mph 0.00 in   Overcast
2:44 PM 36.0 °F 26.3 °F 30.9 °F 82% 29.53 in 10.0 mi WNW 16.1 mph - 0.00 in   Overcast
2:53 PM 36.0 °F 26.0 °F 30.9 °F 82% 29.56 in 9.0 mi NW 17.3 mph - 0.00 in Snow Light Snow
3:06 PM 35.1 °F 24.5 °F 30.9 °F 85% 29.55 in 6.0 mi WNW 18.4 mph 27.6 mph 0.00 in Snow Light Snow
3:29 PM 35.1 °F 24.5 °F 30.9 °F 85% 29.56 in 10.0 mi NW 18.4 mph 25.3 mph 0.00 in Rain Light Rain
3:53 PM 36.0 °F 26.0 °F 30.0 °F 79% 29.60 in 10.0 mi NW 17.3 mph 24.2 mph 0.00 in   Overcast
4:27 PM 34.0 °F 22.7 °F 30.0 °F 85% 29.61 in 1.8 mi NW 19.6 mph 27.6 mph 0.00 in Snow Light Snow
4:30 PM 34.0 °F 21.8 °F 30.0 °F 85% 29.61 in 0.8 mi NNW 23.0 mph 31.1 mph 0.00 in Snow Light Snow
4:40 PM 34.0 °F 23.4 °F 30.0 °F 85% 29.62 in 2.0 mi NW 17.3 mph 26.5 mph 0.00 in Snow Light Snow
4:46 PM 34.0 °F 23.0 °F 30.0 °F 85% 29.63 in 1.0 mi NW 18.4 mph 26.5 mph 0.00 in Snow Light Snow
4:49 PM 33.8 °F 22.8 °F 30.2 °F 87% 29.63 in 0.5 mi NW 18.4 mph 26.5 mph 0.00 in Fog , Snow Snow
4:53 PM 33.1 °F 21.9 °F 30.0 °F 89% 29.66 in 0.5 mi NW 18.4 mph 26.5 mph 0.00 in Fog , Snow Light Snow
4:58 PM 33.1 °F 22.6 °F 30.0 °F 89% 29.63 in 1.0 mi NNW 16.1 mph 26.5 mph 0.00 in Snow Light Snow
5:01 PM 33.1 °F 21.9 °F 30.0 °F 89% 29.64 in 3.0 mi NNW 18.4 mph 24.2 mph 0.00 in Snow Light Snow
5:23 PM 35.1 °F 25.2 °F 28.9 °F 78% 29.65 in 10.0 mi NW 16.1 mph 27.6 mph 0.00 in   Overcast
5:53 PM 35.1 °F 23.3 °F 28.9 °F 78% 29.70 in 10.0 mi WNW 23.0 mph 32.2 mph 0.01 in   Overcast
6:53 PM 33.1 °F 22.2 °F 28.0 °F 82% 29.77 in 3.0 mi NW 17.3 mph - 0.00 in Snow Light Snow
6:59 PM 33.1 °F 23.0 °F 28.0 °F 82% 29.75 in 2.0 mi NW 15.0 mph - 0.00 in Snow Light Snow
7:02 PM 33.1 °F 24.4 °F 28.0 °F 82% 29.75 in 1.5 mi NW 11.5 mph - 0.00 in Snow Light Snow
7:11 PM 33.1 °F 21.5 °F 28.9 °F 85% 29.76 in 2.0 mi NW 19.6 mph 25.3 mph 0.00 in Snow Light Snow
7:19 PM 33.1 °F 19.3 °F 27.0 °F 78% 29.76 in 7.0 mi NW 28.8 mph 34.5 mph 0.00 in Snow Light Snow
7:53 PM 32.0 °F 19.2 °F 25.0 °F 75% 29.83 in 9.0 mi NW 23.0 mph 36.8 mph 0.00 in Snow Light Snow
8:53 PM 30.9 °F 18.4 °F 24.1 °F 76% 29.88 in 9.0 mi NW 20.7 mph 28.8 mph 0.00 in Snow Light Snow
9:53 PM 30.0 °F 21.7 °F 26.1 °F 85% 29.93 in 6.0 mi NW 9.2 mph - 0.00 in Snow Light Snow
10:53 PM 32.0 °F 22.1 °F 24.1 °F 73% 29.95 in 10.0 mi NW 13.8 mph - 0.00 in   Overcast
11:46 PM 33.1 °F 23.9 °F 24.1 °F 70% 29.94 in 10.0 mi NW 12.7 mph - N/A   Overcast
11:53 PM 33.1 °F 23.9 °F 24.1 °F 70% 29.97 in 10.0 mi NW 12.7 mph - N/A   Overcast